Tracking 29892 objects as of 21-Nov-2024
HD Live streaming from Space Station
objects crossing your sky now

DELTA 1 DEB

Track DELTA 1 DEB now!
10-day predictions


NORAD ID: 7059
Int'l Code: 1973-086BB
Perigee: 1,478.0 km
Apogee: 1,654.9 km
Inclination: 102.0 °
Period: 117.3 minutes
Semi major axis: 7937 km
RCS: 0.1035 m2 (medium)
Launch date: November 6, 1973
Source: United States (US)
Launch site: AIR FORCE WESTERN TEST RANGE (AFWTR)

Note: This is SATELLITE DEBRIS
Your satellite tracking list
Your tracking list is empty




NASA's NSSDC Master Catalog

Two Line Element Set (TLE):
1 07059U 73086BB  24325.82739201  .00000944  00000-0  84876-2 0  9995
2 07059 101.9968  89.1658 0111427 265.9652 250.8044 12.27678511279017
Source of the keplerian elements: AFSPC